Regional Weather Roundup
Issued by NWS Charleston, SC

Home | Current Version | Previous Version | Text Only | Print | Product List | Glossary On
Versions: 1 2 3 4 5 6 7 8 9 10 11 12 13 14 15 16 17 18 19 20 21 22 23 24 25 26 27 28 29 30 31 32 33 34 35 36 37 38 39 40 41 42 43 44 45 46 47 48 49 50
000
ASUS42 KCHS 240725
RWRCHS

REGIONAL WEATHER ROUNDUP
NATIONAL WEATHER SERVICE CHARLESTON SC
300 AM EDT THU APR 24 2014

NOTE: "FAIR" INDICATES FEW OR NO CLOUDS BELOW 12,000 FEET WITH NO
SIGNIFICANT WEATHER AND/OR OBSTRUCTIONS TO VISIBILITY.

NOT ALL STATIONS ARE QUALITY CONTROLLED BY THE NATIONAL
WEATHER SERVICE. USE DATA WITH CAUTION...ESPECIALLY
DEWPOINT OBSERVATIONS.

SCZ027-030-031-034>040-042>050-240800-
...SOUTH CAROLINA...

CITY           SKY/WX    TMP DP  RH WIND       PRES   REMARKS
N CHARLESTON   CLEAR     61  49  64 NE9       29.94S
WATERFRONT PRK   N/A     66 N/A N/A NE10        N/A
FORT JOHNSON     N/A     64  59  82 E5        29.98S
MOUNT PLEASANT FAIR      55  54  94 CALM      29.94F
JOHNS ISLAND   SUNNY     61  55  82 NE6       29.93F
PINOPOLIS        N/A     64  48  55 E6        29.87F
MONCKS CORNER  FAIR      59  50  72 E3        29.95S
SUMMERVILLE    NOT AVBL
BEAUFORT MCAS  CLEAR     58  56  93 E3        29.92S
BEAUFORT ARPT  FAIR      57  57 100 NE5       29.92S
HILTON HEAD IS CLEAR     57  57 100 CALM      29.93F
GEORGETOWN     NOT AVBL
WALTERBORO     SUNNY     57  48  72 E3        29.94S
ORANGEBURG     CLEAR     53  46  77 NE6       29.95F
BARNWELL       FAIR      52  48  87 NE3       29.95S
AIKEN          FAIR      54  45  71 CALM      29.99R
MANNING        FAIR      52  45  76 N7        29.96F
KINGSTREE      NOT AVBL
COLUMBIA       CLEAR     52  46  80 NE5       29.96F
SUMTER         CLEAR     55  39  55 NE13      29.96S
FLORENCE       CLEAR     54  38  54 NE8       29.99R
MYRTLE BEACH   CLEAR     55  50  82 N6        29.97S
N MYRTLE BEACH CLEAR     48  43  82 CALM      29.97S

$$

GAZ063-065-086>088-099>101-113>116-118-119-134-136>141-150-240800-
...GEORGIA...

CITY           SKY/WX    TMP DP  RH WIND       PRES   REMARKS
SAVANNAH ARPT  CLEAR     59  54  83 CALM      29.92F
HUNTER AAF     CLEAR     59  56  91 CALM      29.90F
FORT STEWART   CLEAR     58  58 100 CALM      29.90F
STATESBORO     NOT AVBL
SYLVANIA       SUNNY     56  53  89 CALM      29.93S
CLAXTON        FAIR     N/A N/A N/A CALM      29.92S HAZE
THOMSON        CLEAR     48  48 100 CALM      29.99S
AUGUSTA-BUSH   CLEAR     50  46  86 CALM      29.95S
AUGUSTA-DANIEL CLEAR     63  46  54 N7        29.95S
SWAINSBORO     FAIR      48  48 100 CALM      29.94S
VIDALIA        CLEAR     57  54  88 CALM      29.94R
ALMA           CLEAR     58  55  90 CALM      29.92F FOG
WAYCROSS       NOT AVBL
JESUP          FAIR      54  54 100 CALM      29.93S
BRUNSWICK        N/A     61  59  94 CALM      29.93S VSB 1/2
SAINT SIMONS   CLEAR     65  63  93 CALM      29.92F

$$

SCZ027-028-034-036>038-045-046-048>050-GAZ119-141-240800-
...LAKE AND SUPPLEMENTAL COASTAL OBSERVATIONS...

STATION/POSITION TIME  TEMP    WIND        PRES    WAVE   SWELL
                       AIR SEA DIR/SP/G            HT/PER HT/PER/DIR
                 (UTC) (F)     (DEG/KT/KT) (MB)    (FT/S) (FT/S/D)
UPR LAKE MARION  NOT AVBL
WINYAH BAY       0700   65      60/  5     1014.0S
LAKE MURRAY      0600   60      40/  3/  5 1014.6S
ACE BASIN NERRS  0700   60        CALM     1013.0S
FORT PULASKI     0700   63 61   20/  8/ 12 1013.4S
SAPELO ISLAND    0700   63     180/  2     1013.0S

$$

ANZ835-935-AMZ111-154-330-350-352-354-374-450-454-472-240800-
...C-MAN AND BUOY OBSERVATIONS...

STATION/POSITION TIME  TEMP    WIND        PRES    WAVE   SWELL
                       AIR SEA DIR/SP/G            HT/PER HT/PER/DIR
                 (UTC) (F)     (DEG/KT/KT) (MB)    (FT/S) (FT/S/D)
FOLLY BEACH CMAN 0700   65      40/  9/ 11 1014.0S
BUOY 41004       0700   68 71   30/  8/ 10 1013.1F   2/ 8   2/ 8
BUOY 41008       0700   68 67  210/  6/  8 1013.1F   1/ 8   2/100/ 8
5E ST. MARYS GA  0700      68                N/A     1/ 8
FRYING PAN BUOY  0700   68 68   80/  8/  8 1014.1F   3/ 9   2/ 70/ 9
BUOY 41025       0700   60 75   10/ 19/ 23 1014.5F   4/ 8   2/ 60/13
CAPE LOOKOUT NC  0700   61      40/ 12/ 13 1015.2R
BUOY 41002       NOT AVBL
BUOY 41010       0700   74 75  220/  2/  4 1014.2F   2/ 8   2/120/ 8
BUOY 41012       NOT AVBL
ST AUGUSTINE FL  0700   66     230/  3/  4 1014.0F
CAPERS NEARSHORE NOT AVBL
FRIPP NEARSHORE  0600   65     220/  2/  4   N/A


$$



USA.gov is the U.S. government's official web portal to all federal, state and local government web resources and services.